******** Week 149 almanac for PRN-1 ******** ID: 1 Health: 0 Eccentricity: 0.01138401031 Time of Applicability(s): 233472 Orbital Inclination(rad): 0.9866756175 Rate of Right Ascen(r/s): -8.000333246e-09 SQRT(A) (m 1/2): 5153.621094 Right Ascen at Week(rad): -1.911213105 Argument of Perigee(rad): 0.8815865489 Mean Anom(rad): -2.728770936 Af0(s): 0.000340660791 Af1(s/s): -1.091394e-11 week: 149 ******** Week 149 almanac for PRN-2 ******** ID: 2 Health: 0 Eccentricity: 0.02067470551 Time of Applicability(s): 233472 Orbital Inclination(rad): 0.9650380995 Rate of Right Ascen(r/s): -8.091765626e-09 SQRT(A) (m 1/2): 5153.641602 Right Ascen at Week(rad): -2.000512059 Argument of Perigee(rad): -1.44210223 Mean Anom(rad): -2.584074153 Af0(s): -0.0005147595581 Af1(s/s): 0 week: 149 ******** Week 149 almanac for PRN-3 ******** ID: 3 Health: 0 Eccentricity: 0.00389289856 Time of Applicability(s): 233472 Orbital Inclination(rad): 0.97252824 Rate of Right Ascen(r/s): -8.000333246e-09 SQRT(A) (m 1/2): 5153.633301 Right Ascen at Week(rad): -0.8756584772 Argument of Perigee(rad): 0.9570583288 Mean Anom(rad): 2.401191885 Af0(s): -9.722398682e-05 Af1(s/s): -1.818989e-11 week: 149 ******** Week 149 almanac for PRN-4 ******** ID: 4 Health: 0 Eccentricity: 0.00169801712 Time of Applicability(s): 233472 Orbital Inclination(rad): 0.9615806506 Rate of Right Ascen(r/s): -7.588887536e-09 SQRT(A) (m 1/2): 5153.611328 Right Ascen at Week(rad): 0.2053294705 Argument of Perigee(rad): -3.061799064 Mean Anom(rad): -0.9465024737 Af0(s): -0.000149981189 Af1(s/s): 3.637979e-12 week: 149 ******** Week 149 almanac for PRN-5 ******** ID: 5 Health: 0 Eccentricity: 0.005877017975 Time of Applicability(s): 233472 Orbital Inclination(rad): 0.9595013876 Rate of Right Ascen(r/s): -8.137481816e-09 SQRT(A) (m 1/2): 5153.617188 Right Ascen at Week(rad): -0.916065913 Argument of Perigee(rad): 1.008080792 Mean Anom(rad): -0.07452315359 Af0(s): -5.652557373e-05 Af1(s/s): 0 week: 149 ******** Week 149 almanac for PRN-6 ******** ID: 6 Health: 0 Eccentricity: 0.00269651413 Time of Applicability(s): 233472 Orbital Inclination(rad): 0.9860584299 Rate of Right Ascen(r/s): -7.977475151e-09 SQRT(A) (m 1/2): 5153.621582 Right Ascen at Week(rad): -1.91948559 Argument of Perigee(rad): -0.9582290378 Mean Anom(rad): -2.400727871 Af0(s): 0.0001597789551 Af1(s/s): 1.091394e-11 week: 149 ******** Week 149 almanac for PRN-7 ******** ID: 7 Health: 0 Eccentricity: 0.01554250717 Time of Applicability(s): 233472 Orbital Inclination(rad): 0.9506690138 Rate of Right Ascen(r/s): -8.080336578e-09 SQRT(A) (m 1/2): 5153.62793 Right Ascen at Week(rad): 1.224127904 Argument of Perigee(rad): -2.29077785 Mean Anom(rad): 2.884259513 Af0(s): 0.0002456978271 Af1(s/s): 3.637979e-12 week: 149 ******** Week 149 almanac for PRN-8 ******** ID: 8 Health: 0 Eccentricity: 0.007297515869 Time of Applicability(s): 233472 Orbital Inclination(rad): 0.9650800442 Rate of Right Ascen(r/s): -7.623174678e-09 SQRT(A) (m 1/2): 5153.679199 Right Ascen at Week(rad): -2.99080901 Argument of Perigee(rad): 0.1051641951 Mean Anom(rad): -0.4657815069 Af0(s): -4.446678467e-05 Af1(s/s): 0 week: 149 ******** Week 149 almanac for PRN-9 ******** ID: 9 Health: 0 Eccentricity: 0.00225353241 Time of Applicability(s): 233472 Orbital Inclination(rad): 0.9545818632 Rate of Right Ascen(r/s): -7.680319916e-09 SQRT(A) (m 1/2): 5153.578125 Right Ascen at Week(rad): 0.1523966471 Argument of Perigee(rad): 1.869740571 Mean Anom(rad): -0.09981735829 Af0(s): -0.0002796131714 Af1(s/s): 0 week: 149 ******** Week 149 almanac for PRN-10 ******** ID: 10 Health: 0 Eccentricity: 0.007503032684 Time of Applicability(s): 233472 Orbital Inclination(rad): 0.9723604609 Rate of Right Ascen(r/s): -7.966046103e-09 SQRT(A) (m 1/2): 5153.633301 Right Ascen at Week(rad): -0.8784455585 Argument of Perigee(rad): -2.513328652 Mean Anom(rad): 1.52070002 Af0(s): -0.0002539882446 Af1(s/s): -1.091394e-11 week: 149 ******** Week 149 almanac for PRN-11 ******** ID: 11 Health: 255 Eccentricity: 0.0002679824829 Time of Applicability(s): 233472 Orbital Inclination(rad): 0.9617723982 Rate of Right Ascen(r/s): -8.251772291e-09 SQRT(A) (m 1/2): 5153.717773 Right Ascen at Week(rad): -1.867432858 Argument of Perigee(rad): 2.872797351 Mean Anom(rad): -0.6128492935 Af0(s): -6.933803711e-05 Af1(s/s): 1.091394e-11 week: 149 ******** Week 149 almanac for PRN-12 ******** ID: 12 Health: 0 Eccentricity: 0.008687496185 Time of Applicability(s): 233472 Orbital Inclination(rad): 0.9701913162 Rate of Right Ascen(r/s): -7.760323248e-09 SQRT(A) (m 1/2): 5153.547363 Right Ascen at Week(rad): 2.337218969 Argument of Perigee(rad): 1.247126381 Mean Anom(rad): 2.232022566 Af0(s): -0.000135661377 Af1(s/s): -7.275958e-12 week: 149 ******** Week 149 almanac for PRN-13 ******** ID: 13 Health: 0 Eccentricity: 0.005807876587 Time of Applicability(s): 233472 Orbital Inclination(rad): 0.9689869016 Rate of Right Ascen(r/s): -7.543171346e-09 SQRT(A) (m 1/2): 5153.633301 Right Ascen at Week(rad): 0.3051745423 Argument of Perigee(rad): 0.957709222 Mean Anom(rad): -1.033609438 Af0(s): 0.000207260437 Af1(s/s): 7.275958e-12 week: 149 ******** Week 149 almanac for PRN-14 ******** ID: 14 Health: 0 Eccentricity: 0.001441001892 Time of Applicability(s): 233472 Orbital Inclination(rad): 0.9535871726 Rate of Right Ascen(r/s): -7.943188008e-09 SQRT(A) (m 1/2): 5153.589844 Right Ascen at Week(rad): 2.305923289 Argument of Perigee(rad): 3.020093961 Mean Anom(rad): 2.295481659 Af0(s): -6.632333984e-05 Af1(s/s): -3.637979e-12 week: 149 ******** Week 149 almanac for PRN-15 ******** ID: 15 Health: 0 Eccentricity: 0.01393699646 Time of Applicability(s): 233472 Orbital Inclination(rad): 0.9304396422 Rate of Right Ascen(r/s): -7.908900866e-09 SQRT(A) (m 1/2): 5153.691406 Right Ascen at Week(rad): 0.04639430519 Argument of Perigee(rad): 1.074990967 Mean Anom(rad): -1.460488653 Af0(s): -6.632333984e-05 Af1(s/s): 3.637979e-12 week: 149 ******** Week 149 almanac for PRN-16 ******** ID: 16 Health: 0 Eccentricity: 0.0127620697 Time of Applicability(s): 233472 Orbital Inclination(rad): 0.9701613556 Rate of Right Ascen(r/s): -7.726036106e-09 SQRT(A) (m 1/2): 5153.550781 Right Ascen at Week(rad): 2.355835713 Argument of Perigee(rad): 0.7084556947 Mean Anom(rad): 0.3776997009 Af0(s): -0.000371561438 Af1(s/s): -3.637979e-12 week: 149 ******** Week 149 almanac for PRN-17 ******** ID: 17 Health: 0 Eccentricity: 0.01360464096 Time of Applicability(s): 233472 Orbital Inclination(rad): 0.9801861597 Rate of Right Ascen(r/s): -7.486026109e-09 SQRT(A) (m 1/2): 5153.721191 Right Ascen at Week(rad): -2.90895975 Argument of Perigee(rad): -1.498220236 Mean Anom(rad): -0.5564024706 Af0(s): 0.0004544656128 Af1(s/s): 3.637979e-12 week: 149 ******** Week 149 almanac for PRN-18 ******** ID: 18 Health: 0 Eccentricity: 0.002096176147 Time of Applicability(s): 233472 Orbital Inclination(rad): 0.9704669533 Rate of Right Ascen(r/s): -8.160339911e-09 SQRT(A) (m 1/2): 5153.568848 Right Ascen at Week(rad): -1.903396019 Argument of Perigee(rad): 3.107442857 Mean Anom(rad): -2.528547494 Af0(s): 0.0001891722534 Af1(s/s): -7.275958e-12 week: 149 ******** Week 149 almanac for PRN-19 ******** ID: 19 Health: 0 Eccentricity: 0.008975028992 Time of Applicability(s): 233472 Orbital Inclination(rad): 0.9789278161 Rate of Right Ascen(r/s): -7.531742299e-09 SQRT(A) (m 1/2): 5153.646484 Right Ascen at Week(rad): -2.864102047 Argument of Perigee(rad): 2.00824825 Mean Anom(rad): 1.855619409 Af0(s): 9.420928955e-05 Af1(s/s): 3.637979e-12 week: 149 ******** Week 149 almanac for PRN-20 ******** ID: 20 Health: 0 Eccentricity: 0.005154132843 Time of Applicability(s): 233472 Orbital Inclination(rad): 0.9416508846 Rate of Right Ascen(r/s): -8.354633718e-09 SQRT(A) (m 1/2): 5153.692871 Right Ascen at Week(rad): -1.030123527 Argument of Perigee(rad): 3.133033671 Mean Anom(rad): -1.713388755 Af0(s): 0.0004084914795 Af1(s/s): 0 week: 149 ******** Week 149 almanac for PRN-21 ******** ID: 21 Health: 0 Eccentricity: 0.02460479736 Time of Applicability(s): 233472 Orbital Inclination(rad): 0.9592916636 Rate of Right Ascen(r/s): -8.126052768e-09 SQRT(A) (m 1/2): 5153.529785 Right Ascen at Week(rad): -2.002146407 Argument of Perigee(rad): -1.004742811 Mean Anom(rad): -0.3692032599 Af0(s): 0.0001251099365 Af1(s/s): 0 week: 149 ******** Week 149 almanac for PRN-22 ******** ID: 22 Health: 0 Eccentricity: 0.01289653778 Time of Applicability(s): 233472 Orbital Inclination(rad): 0.9617064849 Rate of Right Ascen(r/s): -7.623174678e-09 SQRT(A) (m 1/2): 5153.614746 Right Ascen at Week(rad): 0.2536240243 Argument of Perigee(rad): -1.872539636 Mean Anom(rad): -0.6794733448 Af0(s): 0.0001688230469 Af1(s/s): 7.275958e-12 week: 149 ******** Week 149 almanac for PRN-23 ******** ID: 23 Health: 0 Eccentricity: 0.001972198486 Time of Applicability(s): 233472 Orbital Inclination(rad): 0.9673929997 Rate of Right Ascen(r/s): -8.057478483e-09 SQRT(A) (m 1/2): 5153.654297 Right Ascen at Week(rad): -0.9033064585 Argument of Perigee(rad): 2.962994373 Mean Anom(rad): 2.839457986 Af0(s): 7.536743164e-07 Af1(s/s): -3.637979e-12 week: 149 ******** Week 149 almanac for PRN-24 ******** ID: 24 Health: 0 Eccentricity: 0.01233911514 Time of Applicability(s): 233472 Orbital Inclination(rad): 0.9342206651 Rate of Right Ascen(r/s): -8.240343243e-09 SQRT(A) (m 1/2): 5153.628906 Right Ascen at Week(rad): 1.1413435 Argument of Perigee(rad): 0.8073963321 Mean Anom(rad): -2.432310049 Af0(s): 0.0002170582031 Af1(s/s): -3.637979e-12 week: 149 ******** Week 149 almanac for PRN-25 ******** ID: 25 Health: 0 Eccentricity: 0.01050567627 Time of Applicability(s): 233472 Orbital Inclination(rad): 0.9575719273 Rate of Right Ascen(r/s): -7.943188008e-09 SQRT(A) (m 1/2): 5153.652344 Right Ascen at Week(rad): 2.260488846 Argument of Perigee(rad): 0.9813162726 Mean Anom(rad): 1.97735142 Af0(s): 0.0002261022949 Af1(s/s): 3.637979e-12 week: 149 ******** Week 149 almanac for PRN-26 ******** ID: 26 Health: 0 Eccentricity: 0.006878852844 Time of Applicability(s): 233472 Orbital Inclination(rad): 0.9383911754 Rate of Right Ascen(r/s): -8.126052768e-09 SQRT(A) (m 1/2): 5153.636719 Right Ascen at Week(rad): 2.213483345 Argument of Perigee(rad): 0.3699942188 Mean Anom(rad): 1.32459653 Af0(s): 0.0001447054687 Af1(s/s): 3.637979e-12 week: 149 ******** Week 149 almanac for PRN-27 ******** ID: 27 Health: 0 Eccentricity: 0.01023340225 Time of Applicability(s): 233472 Orbital Inclination(rad): 0.9737805915 Rate of Right Ascen(r/s): -7.554600394e-09 SQRT(A) (m 1/2): 5153.611328 Right Ascen at Week(rad): -2.971391944 Argument of Perigee(rad): 0.6386606924 Mean Anom(rad): -0.5078240404 Af0(s): 9.496296387e-05 Af1(s/s): 1.455192e-11 week: 149 ******** Week 149 almanac for PRN-29 ******** ID: 29 Health: 0 Eccentricity: 0.001836299896 Time of Applicability(s): 233472 Orbital Inclination(rad): 0.9821995095 Rate of Right Ascen(r/s): -7.474597061e-09 SQRT(A) (m 1/2): 5153.714355 Right Ascen at Week(rad): -2.895953869 Argument of Perigee(rad): 2.255102311 Mean Anom(rad): -0.38130508 Af0(s): -0.0003798518555 Af1(s/s): -3.637979e-12 week: 149 ******** Week 149 almanac for PRN-30 ******** ID: 30 Health: 0 Eccentricity: 0.005509376526 Time of Applicability(s): 233472 Orbital Inclination(rad): 0.9358325434 Rate of Right Ascen(r/s): -8.240343243e-09 SQRT(A) (m 1/2): 5153.510742 Right Ascen at Week(rad): 1.237261117 Argument of Perigee(rad): -2.743807768 Mean Anom(rad): 2.921282154 Af0(s): -0.0004054767822 Af1(s/s): -3.637979e-12 week: 149 ******** Week 149 almanac for PRN-31 ******** ID: 31 Health: 0 Eccentricity: 0.01045560837 Time of Applicability(s): 233472 Orbital Inclination(rad): 0.9548934531 Rate of Right Ascen(r/s): -8.023191341e-09 SQRT(A) (m 1/2): 5153.625488 Right Ascen at Week(rad): 1.242228578 Argument of Perigee(rad): 0.3755189464 Mean Anom(rad): 2.432048643 Af0(s): -0.0001303856567 Af1(s/s): 0 week: 149 ******** Week 149 almanac for PRN-32 ******** ID: 32 Health: 0 Eccentricity: 0.005571365356 Time of Applicability(s): 233472 Orbital Inclination(rad): 0.9584347915 Rate of Right Ascen(r/s): -7.646032773e-09 SQRT(A) (m 1/2): 5153.73291 Right Ascen at Week(rad): 0.1635970288 Argument of Perigee(rad): -2.353834722 Mean Anom(rad): 0.1370313727 Af0(s): -5.426455078e-05 Af1(s/s): -7.275958e-12 week: 149